Latham, NY

6:31 PM EDT on August 31, 2016 (GMT -0400)
Albany International

Weather History for KALB - February, 2015

Change the Weather History Date:

Friday, February 20, 2015

  Actual Average Record
Temperature  
Mean Temperature 5 °F 27 °F  
Max Temperature 13 °F 36 °F 66 °F (1930)
Min Temperature -4 °F 18 °F -16 °F (1966)
Degree Days  
Heating Degree Days 60 38  
Month to date heating degree days 1051 800  
Since 1 July heating degree days 4722 4651  
Cooling Degree Days 0 0  
Month to date cooling degree days 0 0  
Year to date cooling degree days 0 0  
Moisture  
Dew Point -8 °F    
Average Humidity 60    
Maximum Humidity 72    
Minimum Humidity 48    
Precipitation  
Precipitation T in 0.08 in 1.02 in (1934)
Month to date precipitation 2.06 1.53  
Year to date precipitation 4.23 4.12  
Snow  
Snow T in 0.40 in 11.20 in (1977)
Month to date snowfall 29.7 8.9  
Since 1 July snowfall 69.7 43.6  
Snow Depth 13.00 in    
Sea Level Pressure  
Sea Level Pressure 30.18 in    
Wind  
Wind Speed 13 mph (WNW)    
Max Wind Speed 28 mph    
Max Gust Speed 35 mph    
Visibility 10 miles    
Events Snow    
T = Trace of Precipitation, MM = Missing Value Source: NWS Daily Summary

Daily Weather History Graph

Daily Weather History Graph

Search for Another Location

Airport or City:

Trip Planner

Search our weather history database for the weather conditions in past years. The results will help you decide how hot, cold, wet, or windy it might be!

Date:

Astronomy

Feb. 20, 2015 Rise Set
Actual Time 6:45 AM EST 5:33 PM EST
Civil Twilight 6:16 AM EST 6:01 PM EST
Nautical Twilight 5:43 AM EST 6:34 PM EST
Astronomical Twilight 5:11 AM EST 7:07 PM EST
Moon 7:32 AM EST (2/20) 7:58 PM EST (2/20)
Length of Visible Light 11h 45m
Length of Day
10h 47m
Waxing Crescent, 4% of the Moon is Illuminated
Feb 20
Waxing Crescent
Feb 25
First Quarter
Mar 5
Full
Mar 13
Last Quarter
Mar 20
New

Hourly Weather History & Observations

Time (EST) Temp. Windchill Dew Point Humidity Pressure Visibility Wind Dir Wind Speed Gust Speed Precip Events Conditions
12:41 AM 3.0 °F -17.3 °F -8.0 °F 60% 29.90 in 10.0 mi WNW 18.4 mph 26.5 mph N/A   Mostly Cloudy
12:51 AM 3.0 °F -14.8 °F -8.0 °F 60% 29.93 in 10.0 mi WNW 13.8 mph 26.5 mph 0.00 in Snow Light Snow
1:09 AM 3.0 °F -17.3 °F -9.0 °F 57% 29.91 in 10.0 mi WNW 18.4 mph 29.9 mph 0.00 in   Mostly Cloudy
1:51 AM 1.9 °F -17.5 °F -9.9 °F 58% 29.95 in 10.0 mi West 16.1 mph 33.4 mph 0.00 in   Mostly Cloudy
2:51 AM 1.0 °F -20.4 °F -11.9 °F 55% 29.96 in 10.0 mi West 19.6 mph 26.5 mph N/A   Overcast
3:51 AM 1.4 °F -16.1 °F -13.0 °F 51% 29.96 in 10.0 mi WNW 12.7 mph 23.0 mph N/A   Mostly Cloudy
4:51 AM -0.0 °F -21.3 °F -13.0 °F 54% 30.01 in 10.0 mi WNW 18.4 mph 26.5 mph N/A   Overcast
5:51 AM -0.9 °F -19.1 °F -13.0 °F 57% 30.05 in 10.0 mi WNW 12.7 mph 24.2 mph N/A   Overcast
6:51 AM -0.9 °F -19.1 °F -11.9 °F 60% 30.07 in 10.0 mi West 12.7 mph - N/A   Overcast
7:51 AM -0.9 °F -16.4 °F -11.0 °F 62% 30.10 in 3.0 mi NW 9.2 mph - 0.00 in Snow Light Snow
8:16 AM -0.0 °F -16.3 °F -11.0 °F 60% 30.09 in 10.0 mi NW 10.4 mph 21.9 mph 0.00 in   Mostly Cloudy
8:51 AM -0.0 °F -19.4 °F -11.9 °F 57% 30.13 in 10.0 mi WNW 15.0 mph - 0.00 in   Mostly Cloudy
9:51 AM 3.2 °F -18.1 °F -9.4 °F 56% 30.15 in 10.0 mi WNW 20.7 mph 31.1 mph N/A   Mostly Cloudy
10:51 AM 5.0 °F -14.7 °F -8.0 °F 55% 30.19 in 10.0 mi WNW 18.4 mph 28.8 mph N/A   Scattered Clouds
11:51 AM 8.1 °F -11.2 °F -6.0 °F 53% 30.20 in 10.0 mi WNW 19.6 mph 29.9 mph N/A   Scattered Clouds
12:51 PM 10.0 °F -7.1 °F -5.1 °F 51% 30.21 in 10.0 mi WNW 16.1 mph 31.1 mph N/A   Partly Cloudy
1:51 PM 10.9 °F -8.3 °F -4.0 °F 51% 30.24 in 10.0 mi WNW 21.9 mph 34.5 mph N/A   Partly Cloudy
2:51 PM 12.9 °F -5.7 °F -4.0 °F 47% 30.26 in 10.0 mi WNW 21.9 mph 29.9 mph N/A   Partly Cloudy
3:51 PM 12.9 °F -3.4 °F -4.0 °F 47% 30.29 in 10.0 mi West 16.1 mph - N/A   Partly Cloudy
4:51 PM 12.0 °F -6.5 °F -4.0 °F 49% 30.31 in 10.0 mi WNW 20.7 mph - N/A   Clear
5:51 PM 10.0 °F -4.5 °F -5.1 °F 51% 30.35 in 10.0 mi West 11.5 mph - N/A   Clear
6:51 PM 10.0 °F -4.5 °F -6.0 °F 48% 30.40 in 10.0 mi WNW 11.5 mph - N/A   Clear
7:51 PM 7.0 °F 0.1 °F -7.1 °F 53% 30.41 in 10.0 mi WNW 3.5 mph - N/A   Clear
8:51 PM 1.0 °F - -8.0 °F 66% 30.43 in 10.0 mi Calm Calm - N/A   Clear
9:51 PM -0.0 °F - -8.0 °F 69% 30.45 in 10.0 mi Calm Calm - N/A   Partly Cloudy
10:51 PM -0.9 °F - -8.0 °F 72% 30.45 in 10.0 mi Calm Calm - N/A   Clear
11:51 PM -2.0 °F - -9.0 °F 72% 30.46 in 10.0 mi Calm Calm - N/A   Clear